Hourly Data Report for October 05, 2017

All times are specified in Local Standard Time (LST). Add 1 hour to adjust for Daylight Saving Time where and when it is observed.

ASHCROFT
BRITISH COLUMBIA

50°42'30.005" N
121°16'53.001" W
327.00 m
1160515
71681
VAS

Download Data

Hourly Data (October 2017)
Hourly Data Report for October 5, 2017
Temp Definition
°C
Dew Point Temp Definition
°C
Rel Hum Definition
%
Wind Dir Definition
10's deg

Wind Spd Definition
km/h
Visibility Definition
km
Stn Press Definition
kPa
Hmdx Definition


Wind Chill Definition


Weather Definition


TIME
00:00 5.5 -2.8 55   0   98.43     LegendNANA
01:00 4.6 -3.0 58 0 1   98.47     LegendNANA
02:00 4.0 -3.4 59 13 2   98.49     LegendNANA
03:00 3.4 -2.9 63 0 1   98.50     LegendNANA
04:00 2.8 -2.8 67 13 2   98.54     LegendNANA
05:00 2.3 -2.8 69   0   98.55     LegendNANA
06:00 1.7 -3.1 71 7 1   98.58     LegendNANA
07:00 1.5 -2.6 74 13 2   98.62     LegendNANA
08:00 2.2 -2.5 71   0   98.62     LegendNANA
09:00 6.3 -2.7 52 12 3   98.55     LegendNANA
10:00 8.9 -2.2 46 24 3   98.47     LegendNANA
11:00 11.2 -3.8 35 24 3   98.36     LegendNANA
12:00 14.0 -3.7 29 28 2   98.22     LegendNANA
13:00 16.0 -4.5 24 28 4   98.11     LegendNANA
14:00 17.9 -4.9 21 27 3   97.98     LegendNANA
15:00 18.9 -4.4 20 25 3   97.86     LegendNANA
16:00 19.6 -4.9 19 29 3   97.76     LegendNANA
17:00 16.6 -3.9 24 19 4   97.70     LegendNANA
18:00 14.6 -3.3 29 13 3   97.70     LegendNANA
19:00 12.4 -3.3 33 16 2   97.70     LegendNANA
20:00 10.7 -1.6 42 19 3   97.72     LegendNANA
21:00 9.4 -2.5 43 14 4   97.71     LegendNANA
22:00 8.7 -3.0 44 10 2   97.69     LegendNANA
23:00 7.3 -1.7 53 10 3   97.70     LegendNANA

Notes on Data Quality.

Legend

  • E = Estimated
  • M = Missing
  • NA = Not Available
  • ‡ = Partner data that is not subject to review by the National Climate Archives
Date modified: